Printer-friendly version

IAU Minor Planet Center

Minor Planet Center

MPEC 2009-U129: 2006 DQ62 = 2009 SC

The following Minor Planet Electronic Circular may be linked-to from your own Web pages, but must not otherwise be redistributed electronically.


Read MPEC 2009-U128 Read MPEC 2009-U130


M.P.E.C. 2009-U129                               Issued 2009 Oct. 30, 16:07 UT

     The Minor Planet Electronic Circulars contain information on unusual
         minor planets and routine data on comets.  They are published
   on behalf of Commission 20 of the International Astronomical Union by the
          Minor Planet Center, Smithsonian Astrophysical Observatory,
                          Cambridge, MA 02138, U.S.A.

             Prepared using the Tamkin Foundation Computer Network

                              MPC@CFA.HARVARD.EDU
          URL http://www.cfa.harvard.edu/iau/mpc.html  ISSN 1523-6714

                              2006 DQ62 = 2009 SC

                           Revision to MPEC 2006-D54

Orbital elements:
2006 DQ62 = 2009 SC                                      Earth MOID = 0.0977 AU
Id. S. Foglia
Epoch 2010 Jan. 4.0 TT = JDT 2455200.5                  MPC
M  77.21380              (2000.0)            P               Q
n   0.32072444     Peri.    6.56730     -0.70987175     +0.70146597
a   2.1137227      Node   218.23856     -0.65078620     -0.68769784
e   0.6985939      Incl.    5.88523     -0.26936855     -0.18712876
P   3.07           H   19.5           G   0.15           U   3
Residuals in seconds of arc
060225 703  1.0-  1.1-    060228 J95  0.4+  0.6-    090917 G96  0.2+  0.0
060225 703  0.4-  0.2-    060304 J95  0.4+  0.1+    090917 G96  0.5+  0.2-
060225 703  1.5-  0.5+    060304 J95  0.9-  0.6+    090917 G96  0.3+  0.0
060225 703  0.7-  0.8+    090916 G96  0.4+  0.1-    090917 G96  0.3+  0.1+
060225 703  0.1+  0.6+    090916 G96  0.2+  0.1+    090918 291  0.2+  0.1-
060225 703  0.7-  0.4-    090916 G96  0.2+  0.1+    090918 291  0.3+  0.2-
060225 703  0.3-  0.4-    090916 G96  0.2-  0.3-    090918 291  0.1+  0.9+
060225 703  0.5-  0.5+    090916 G96  0.8+  0.2+    090919 291  1.0+  0.2+
060225 J95  0.3+  0.6-    090916 G96  0.1+  0.1+    090919 291  0.2+  0.2+
060225 J95  0.1-  0.6+    090916 G96  0.0   0.2+    090919 291  0.5+  0.0
060225 J95  0.0   0.1+    090916 G96  0.4+  0.0     090920 291  0.1+  0.2-
060225 J95  0.8+  0.5-    090916 J95  0.9-  0.3-    090920 291  0.5-  0.3+
060227 703  1.0-  0.1+    090916 J95  0.5-  0.5-    090920 291  1.4-  0.8+
060227 703  0.6-  0.7+    090916 J95  0.5+  0.3-    090921 291  0.2+  0.2-
060227 734  0.3+  0.6+    090917 291  0.2-  0.1-    090921 291  0.1-  0.1-
060227 734  0.3+  0.1-    090917 291  0.7+  0.8-    090921 291  0.5-  0.2-
060227 703  0.6-  0.1-    090917 G96  0.5+  0.3+    090925 291  0.3+  1.1+
060227 703  0.2-  0.7+    090917 G96  0.7+  0.4+    090925 291  0.2+  0.1-
060227 734  0.5+  0.6-    090917 G96  0.9+  0.1+    090925 291  0.4-  0.3+
060227 854  0.5+  0.6+    090917 G96  0.3+  0.2+    090926 291  0.6+  0.8-
060227 854 (1.6-  0.0 )   090917 G96  0.4+  0.1-    090926 291  0.2-  0.0
060227 854  0.5+  0.4-    090917 G96  0.3-  0.2+    090926 291  0.1+  0.5+
060227 G96  0.4-  0.6+    090917 G96  0.6+  0.3+    090927 291  0.8-  0.3-
060227 G96  0.3-  0.3+    090917 G96  0.3-  0.3-    090927 291 (0.6-  1.6+)
060227 G96  0.4-  0.1+    090917 291  0.1+  0.1-    090927 291  1.4-  0.7+
060227 G96  0.1+  0.4+    090917 291  0.0   0.1-
060228 J95  0.4+  0.3-    090917 291  0.1+  0.2-

Ephemeris:
2006 DQ62                a,e,i = 2.11, 0.70, 6                   q = 0.6371
Date    TT    R. A. (2000) Decl.     Delta      r     Elong.  Phase     V
2009 10 26    22 47.46   -01 59.9    1.463    2.234   129.7    20.0    23.1
2009 11 05    22 48.97   -02 34.0    1.649    2.310   120.0    21.8    23.5
2009 11 15    22 52.96   -02 46.1    1.845    2.384   110.8    22.8    23.8

Gareth V. Williams           (C) Copyright 2009 MPC           M.P.E.C. 2009-U129

Read MPEC 2009-U128 Read MPEC 2009-U130

Valid HTML 4.01!